Temperature
17 17 17 17 17 17 18 18 18 18 17 17 17 17 18 18 18 18 18 18 18 18 18 18 18 18 17 17 18 17 18 18 18 18 18 18 18 18 18 18 18 18 18
17 17 17 17 17 17 18 18 17 17 17 17 17 17 17 17 17 17 17 17 17 17 17 17 17 17 17 17 17 17 17 17 17 17 17 17 17 17 17 17 17 17 18
17 17 17 17 17 17 17 17 17 17 17 17 17 17 17 17 17 17 17 17 17 17 17 17 17 17 17 17 17 17 17 17 17 17 17 17 17 17 17 17 17 17 17
17 17 17 17 17 17 17 17 17 17 17 17 17 17 17 17 17 17 17 17 17 17 17 17 17 17 17 17 17 17 17 17 17 17 17 17 17 17 17 17 17 17 17
17 17 17 17 17 17 17 17 17 17 17 17 17 17 17 17 17 17 17 17 17 17 17 17 17 17 17 17 17 17 17 17 17 17 17 17 17 17 17 17 17 17 17
17 17 17 17 17 17 17 17 17 17 17 17 17 17 17 17 17 17 16 16 16 16 16 17 17 17 17 17 17 17 17 17 17 17 17 17 17 17 17 17 17 17 17
17 17 17 17 17 17 16 17 17 16 16 16 17 16 16 17 16 16 16 16 16 16 16 17 16 17 17 17 17 17 17 17 17 17 17 17 16 16 17 17 17 17 17
17 17 17 17 17 16 16 16 16 16 16 16 16 16 16 16 16 16 16 16 16 16 16 16 16 16 16 17 17 17 17 16 17 16 16 16 16 16 16 16 17 17 16
17 17 17 17 17 16 16 16 16 16 16 16 16 16 16 16 16 16 16 16 16 16 16 16 16 16 16 16 16 16 16 16 16 16 16 16 16 16 16 16 16 16 16
16 16 16 17 17 16 16 16 16 16 16 16 16 16 16 16 16 16 16 16 16 16 16 16 16 16 16 16 16 16 16 16 16 16 16 16 16 16 16 16 16 16 16
16 16 16 16 16 16 16 16 16 16 16 16 16 16 16 16 16 16 16 16 16 16 16 16 16 16 16 16 16 16 16 16 16 16 16 16 16 16 16 16 16 16 16
16 16 16 16 16 16 16 16 16 16 16 16 16 16 16 16 16 16 15 15 15 15 15 15 15 15 16 16 16 16 16 16 16 16 16 16 16 16 16 16 16 16 16
16 16 16 16 16 16 16 16 16 16 16 16 16 16 15 15 15 15 15 15 15 15 15 15 15 15 15 15 15 15 15 15 15 15 15 15 15 15 15 15 15 15 15
17 17 16 16 16 16 16 16 16 16 16 16 16 15 15 15 15 15 15 15 15 15 15 15 15 15 15 15 15 15 15 15 15 15 15 15 15 15 15 15 15 15 15
16 16 16 16 16 16 16 16 16 16 16 16 16 15 15 15 15 15 15 15 15 15 15 15 15 15 15 15 15 15 15 15 15 15 15 15 15 15 15 15 15 15 15
16 16 16 16 16 16 16 16 16 16 16 16 16 15 15 15 15 15 15 15 15 15 15 15 14 15 15 15 15 15 15 15 15 15 15 15 15 15 15 15 15 14 15
16 16 16 16 16 16 16 16 16 16 16 16 15 15 15 15 15 15 15 15 14 14 14 14 14 14 14 14 14 14 14 14 14 14 15 15 15 15 15 14 14 14 14
16 16 16 16 16 16 16 16 16 16 16 15 15 15 15 15 14 14 14 14 14 14 14 14 14 14 14 14 14 14 14 14 14 14 14 14 14 14 14 14 14 14 14
16 16 16 16 16 16 16 15 15 15 15 15 15 15 15 14 14 14 14 14 14 14 14 14 14 14 14 14 14 14 14 14 14 14 14 14 14 14 14 14 14 14 14
16 16 16 16 16 16 15 15 15 15 15 15 15 15 14 14 14 14 14 14 14 13 13 13 14 14 14 14 14 14 13 13 13 13 13 13 14 14 14 14 14 14 14
16 16 16 16 16 16 15 15 15 15 15 15 14 14 14 14 14 14 14 13 13 13 13 13 13 13 13 13 13 13 13 13 13 13 13 13 13 13 13 14 14 14 14
16 16 16 16 16 16 15 15 15 15 15 14 14 14 14 14 14 13 13 13 13 13 13 13 13 13 13 13 13 13 13 13 13 13 13 13 13 13 13 13 13 13 13
16 16 16 16 16 15 15 15 15 15 14 14 14 14 14 13 13 13 13 13 13 13 13 13 12 12 13 13 12 12 12 12 12 12 12 12 12 12 13 13 13 13 13
16 16 16 16 15 15 15 15 15 15 14 14 14 14 13 13 13 13 13 13 13 13 12 12 12 12 12 12 12 12 12 12 12 12 12 12 12 12 12 12 12 13 13
16 16 16 15 15 15 15 15 14 14 14 14 14 13 13 13 13 13 13 12 12 12 12 12 12 12 12 12 12 12 12 12 12 11 12 12 12 12 12 12 12 12 12
16 16 15 15 15 15 15 14 14 14 14 14 14 13 13 13 13 13 12 12 12 12 12 12 12 12 12 12 12 12 12 12 12 11 11 11 11 12 12 12 12 12 12
Wind_Speed
2 2 1 4 6 7 8 8 9 9 9 8 9 10 10 10 10 10 11 11 11 10 10 9 9 9 9 9 9 8 8 7 7 6 6 5 5 5 5 5 5 4 5
2 1 3 5 6 7 8 8 8 8 8 8 9 9 10 10 10 10 10 10 10 10 10 10 10 10 9 9 9 8 7 7 7 6 6 4 4 5 5 5 4 4 4
3 2 3 5 6 7 7 8 8 8 8 8 8 9 9 10 10 10 10 10 10 10 10 10 9 10 9 9 9 8 8 7 7 7 6 5 3 4 4 4 4 3 4
3 3 3 5 6 7 7 7 7 8 8 8 8 9 9 9 9 9 9 10 10 10 10 9 9 9 10 9 9 8 8 8 8 7 6 5 3 3 3 4 3 3 3
4 3 4 6 6 7 7 7 7 8 8 8 8 8 9 9 9 9 9 9 9 9 9 9 9 9 9 9 8 8 8 8 8 7 5 4 3 3 4 4 3 3 3
3 3 4 6 6 7 7 7 7 7 7 8 8 8 8 8 8 8 8 9 9 8 8 8 8 8 8 8 8 8 8 8 8 7 5 4 3 3 4 4 4 3 3
3 3 4 6 6 6 6 6 7 7 7 7 7 7 7 7 7 8 8 8 8 8 8 8 8 7 8 8 8 8 8 8 8 7 6 5 4 5 5 4 4 4 4
3 4 4 6 6 6 6 7 7 7 7 7 7 7 7 7 7 7 7 7 8 8 8 8 8 8 7 7 8 8 8 8 7 6 6 5 6 6 6 6 5 5 5
4 4 5 5 5 6 7 7 7 7 7 7 7 8 8 8 7 7 7 6 6 7 7 8 8 8 8 8 9 9 9 9 7 6 5 5 6 6 6 6 6 6 6
4 4 4 5 6 6 6 6 7 7 7 7 7 7 7 8 8 7 7 6 6 7 8 8 9 9 9 9 9 9 9 8 7 7 5 5 6 5 6 6 6 6 6
2 2 3 3 4 5 5 5 6 7 7 7 7 8 8 8 8 8 8 7 8 9 9 10 10 10 9 9 10 10 9 7 7 6 5 6 6 5 5 6 6 6 6
1 1 2 2 3 4 3 5 6 6 7 7 7 7 7 7 7 7 8 9 9 9 9 10 10 9 8 7 8 9 7 7 7 5 6 7 6 5 5 5 5 6 6
1 1 1 1 2 3 3 4 4 4 5 5 5 5 5 6 6 7 7 7 8 8 7 8 8 7 7 6 6 6 7 6 6 6 6 7 7 6 6 5 5 6 6
2 1 1 2 2 2 2 3 3 3 3 3 3 4 4 3 4 4 4 5 5 5 5 6 5 6 6 6 5 5 6 5 6 6 6 8 7 7 6 6 6 6 6
2 2 1 2 2 2 2 2 2 2 2 2 3 3 4 3 2 3 3 4 4 5 5 4 4 4 4 4 5 5 5 6 6 7 7 8 8 7 6 5 5 5 5
3 2 2 2 2 3 2 2 2 2 2 2 3 3 4 4 3 3 3 3 4 4 4 4 4 3 3 3 4 4 4 5 6 7 7 8 9 8 7 6 5 5 5
3 2 2 2 2 2 2 2 2 2 3 3 3 3 4 4 4 3 3 3 3 4 5 4 4 4 3 4 4 4 4 4 5 6 7 7 8 8 8 7 6 5 5
3 3 2 2 2 2 2 2 2 3 3 3 3 3 4 5 5 4 3 2 3 4 4 3 3 3 3 3 3 3 3 4 5 5 6 7 7 7 7 8 7 6 5
4 4 3 2 3 2 3 3 3 3 3 3 3 3 3 4 5 4 3 2 3 3 3 3 3 2 2 2 2 3 3 3 4 5 5 6 7 6 6 7 8 8 7
4 4 3 2 2 3 3 3 3 3 2 3 3 2 3 4 5 5 3 3 3 2 2 3 3 3 2 2 2 3 3 3 3 4 5 5 6 7 7 7 7 7 8
3 3 3 3 3 3 2 2 2 1 1 1 2 2 3 3 4 4 3 3 3 2 2 2 2 3 2 2 2 3 3 3 3 3 4 4 5 6 6 6 6 6 6
5 4 4 4 4 4 2 2 2 2 1 1 1 3 3 3 3 3 3 2 2 2 2 2 2 2 2 2 2 2 3 4 4 4 4 4 4 4 5 6 6 6 6
6 6 5 4 4 4 3 3 3 3 3 2 2 1 1 2 2 3 3 3 2 2 1 1 1 2 1 2 2 2 2 1 3 3 3 4 4 3 4 4 5 6 6
7 6 5 5 4 4 4 5 5 3 2 1 1 0 1 1 2 2 2 2 2 2 1 1 1 1 2 1 1 2 1 2 1 2 3 3 4 3 4 3 4 5 5
6 6 5 5 4 4 4 5 5 3 2 1 1 1 1 1 1 1 1 2 1 1 1 1 1 1 1 1 1 1 1 2 1 1 2 4 4 3 3 3 3 3 4
5 5 5 5 5 4 5 5 5 5 4 3 2 1 0 0 1 1 1 1 1 1 1 1 1 1 1 1 1 1 1 1 1 1 1 2 3 3 3 2 2 3 3
Wind_Direction
278 287 93 87 85 80 78 82 86 87 88 90 89 90 90 91 92 90 91 90 88 87 87 86 84 82 81 82 79 79 80 84 87 88 89 92 97 103 107 108 109 110 120
184 191 121 96 94 89 84 86 88 87 89 90 88 87 89 89 89 91 91 88 87 86 85 83 80 79 77 76 74 72 72 73 75 79 81 82 94 105 106 111 117 121 126
118 117 116 103 98 95 91 89 90 88 88 92 89 89 89 87 87 89 90 88 85 85 83 79 75 74 73 71 69 67 64 66 68 69 65 54 66 105 106 103 107 114 124
119 104 110 106 99 95 94 93 92 93 91 93 91 93 92 89 90 90 90 87 85 84 82 79 76 75 73 71 68 65 61 64 62 60 55 46 54 89 99 96 96 107 124
100 96 110 109 102 95 93 92 91 95 94 91 89 92 92 91 92 90 89 87 86 84 80 76 76 75 73 71 67 65 63 61 60 54 48 42 51 76 84 82 77 86 113
95 90 106 109 104 97 93 93 89 96 98 94 91 92 91 90 88 87 86 83 82 79 78 75 72 74 73 70 68 65 63 59 55 46 36 36 59 79 80 79 71 75 99
107 93 103 106 99 96 95 95 92 95 97 95 93 93 91 87 85 84 83 79 77 73 72 72 69 70 70 69 68 67 64 62 57 48 41 45 63 72 68 73 72 72 89
101 85 90 102 97 94 94 93 92 93 91 89 88 90 88 85 80 78 78 77 75 69 65 65 64 66 66 69 68 68 66 62 59 47 41 46 61 61 58 58 60 72 80
80 77 65 71 83 88 89 89 88 88 85 85 84 82 78 76 78 76 69 71 72 70 65 61 62 63 64 67 68 68 65 62 56 45 45 46 58 59 57 53 60 66 68
74 73 71 66 66 65 63 80 85 84 80 76 75 74 70 63 60 61 56 57 62 65 63 60 61 60 60 59 64 65 61 55 48 41 36 47 57 59 56 54 60 62 65
82 65 70 68 62 63 61 64 70 73 67 63 59 59 54 46 44 43 48 52 59 62 61 59 58 56 56 54 58 59 55 49 44 38 35 46 54 57 57 56 56 58 62
148 100 73 74 71 66 64 60 55 58 58 57 55 53 48 45 41 41 44 50 52 54 53 51 51 54 54 51 51 51 48 41 39 30 34 38 48 55 57 59 59 60 62
162 122 102 98 78 78 64 65 60 57 57 54 55 55 54 50 43 38 37 36 39 43 42 43 46 50 54 53 51 49 43 40 33 24 26 34 43 49 57 66 70 65 63
132 147 119 123 102 93 86 76 74 65 61 56 56 63 69 59 47 40 41 35 40 41 40 42 48 52 54 53 52 48 42 39 27 19 21 32 38 46 52 61 70 66 64
155 170 163 127 127 112 94 86 81 72 69 67 65 68 82 76 58 49 44 43 43 47 47 43 44 49 52 50 50 50 40 33 25 22 15 26 33 36 43 50 60 61 62
179 180 170 144 139 117 122 118 98 87 83 74 66 72 90 92 84 70 55 47 42 46 52 56 52 49 49 55 52 49 40 35 29 23 18 18 24 31 38 41 46 53 55
180 173 165 161 137 129 140 131 110 106 101 83 71 75 87 95 95 87 72 57 41 49 59 59 53 50 50 50 42 41 42 36 32 25 22 19 17 21 28 34 36 43 43
164 160 168 157 137 146 137 115 98 101 103 95 92 87 91 101 103 90 77 60 45 55 62 64 50 47 39 38 33 24 31 34 30 30 28 24 21 19 18 24 29 32 30
168 165 158 136 138 140 125 107 93 90 85 88 96 97 104 110 111 102 84 62 60 62 57 62 53 56 50 36 36 32 26 25 20 30 27 24 20 19 19 20 25 24 23
163 155 152 136 129 118 98 87 80 70 62 67 76 80 104 114 118 112 99 77 71 68 56 59 65 50 51 38 46 36 20 16 25 25 20 22 23 21 22 26 24 15 19
150 147 147 143 137 124 108 113 116 109 80 63 61 75 94 107 119 117 100 87 78 82 74 72 74 60 40 26 51 22 7 15 27 16 15 20 21 19 21 25 27 21 13
169 168 159 159 162 164 154 138 130 128 116 104 57 64 85 106 122 132 125 123 110 97 72 62 71 68 39 36 77 66 11 354 359 3 5 14 9 12 16 19 28 25 21
180 178 174 176 174 169 146 114 91 69 53 45 39 41 37 91 114 127 134 128 120 118 120 95 88 95 81 24 53 108 107 281 318 336 357 10 6 8 4 12 25 21 21
196 185 175 174 168 158 148 145 143 142 152 190 188 225 12 71 88 106 118 122 124 128 135 160 107 113 115 78 30 50 114 154 133 328 336 350 356 2 357 3 8 12 19
188 181 179 165 160 153 157 161 157 148 152 128 106 86 38 22 46 85 125 131 144 159 168 162 119 124 130 144 138 113 80 66 99 133 308 329 341 343 350 348 355 4 8
172 174 173 164 165 163 162 162 164 159 154 146 150 153 53 352 1 27 101 143 182 187 195 195 169 158 154 147 154 155 161 164 178 155 224 295 312 316 333 340 348 347 353
Height
1513 1513 1513 1513 1512 1512 1512 1512 1511 1512 1512 1512 1513 1513 1513 1514 1514 1514 1515 1515 1516 1516 1517 1517 1518 1518 1518 1518 1518 1519 1519 1520 1520 1521 1521 1521 1521 1522 1522 1522 1523 1523 1524
1514 1514 1514 1514 1513 1513 1513 1513 1513 1513 1513 1514 1514 1514 1515 1515 1515 1515 1516 1516 1517 1517 1518 1518 1519 1519 1519 1519 1519 1519 1520 1520 1520 1521 1521 1521 1522 1522 1522 1522 1523 1523 1524
1514 1515 1515 1514 1514 1514 1514 1514 1514 1514 1514 1515 1515 1515 1516 1516 1516 1517 1517 1517 1518 1518 1519 1519 1519 1519 1519 1519 1520 1520 1520 1521 1521 1521 1521 1521 1522 1522 1522 1523 1523 1523 1524
1515 1516 1516 1515 1515 1515 1515 1515 1515 1515 1516 1516 1516 1517 1517 1517 1517 1518 1518 1518 1519 1519 1520 1520 1520 1520 1520 1520 1520 1521 1521 1521 1521 1521 1521 1521 1521 1522 1522 1523 1523 1523 1523
1516 1516 1516 1516 1516 1516 1516 1516 1516 1517 1517 1517 1518 1518 1518 1518 1519 1519 1519 1520 1520 1520 1521 1521 1521 1521 1521 1521 1521 1521 1521 1521 1521 1521 1520 1520 1520 1521 1522 1523 1522 1522 1523
1517 1517 1518 1518 1518 1517 1518 1518 1518 1518 1518 1518 1519 1519 1520 1520 1520 1520 1520 1521 1521 1521 1522 1522 1522 1522 1521 1522 1522 1522 1522 1522 1521 1520 1519 1518 1519 1521 1522 1523 1522 1522 1522
1518 1519 1519 1519 1519 1519 1519 1519 1519 1519 1519 1520 1520 1520 1521 1521 1521 1521 1522 1522 1522 1523 1523 1523 1523 1522 1522 1522 1522 1522 1522 1522 1522 1521 1519 1519 1520 1522 1522 1523 1522 1522 1522
1519 1520 1520 1520 1520 1520 1520 1520 1521 1521 1521 1521 1521 1522 1522 1522 1522 1523 1523 1523 1524 1524 1524 1524 1524 1523 1523 1523 1523 1523 1523 1523 1522 1522 1522 1521 1522 1522 1523 1523 1523 1522 1522
1520 1521 1521 1521 1521 1522 1522 1522 1522 1522 1523 1523 1523 1523 1523 1523 1524 1524 1524 1525 1525 1525 1525 1525 1525 1524 1524 1524 1524 1524 1524 1524 1523 1523 1523 1523 1523 1523 1523 1523 1523 1523 1522
1521 1522 1522 1522 1522 1523 1523 1523 1523 1524 1524 1524 1524 1524 1525 1525 1525 1525 1525 1525 1526 1526 1526 1526 1525 1525 1525 1525 1525 1525 1525 1525 1524 1524 1524 1524 1524 1524 1524 1523 1523 1523 1523
1522 1523 1523 1523 1524 1524 1524 1525 1525 1525 1525 1525 1526 1526 1526 1526 1526 1526 1526 1526 1527 1527 1527 1527 1526 1526 1526 1526 1526 1526 1526 1525 1525 1525 1525 1525 1525 1524 1524 1524 1524 1524 1524
1523 1524 1524 1525 1525 1525 1526 1526 1526 1526 1527 1527 1527 1527 1527 1527 1527 1527 1527 1528 1528 1528 1528 1528 1528 1527 1527 1527 1526 1526 1526 1526 1526 1526 1525 1525 1525 1525 1525 1524 1524 1524 1524
1524 1525 1525 1526 1526 1527 1527 1527 1527 1528 1528 1528 1528 1529 1529 1529 1529 1529 1529 1529 1529 1529 1529 1529 1529 1528 1528 1527 1527 1527 1527 1527 1526 1526 1526 1526 1526 1525 1525 1525 1525 1524 1524
1524 1525 1526 1526 1527 1527 1528 1528 1528 1529 1529 1529 1529 1529 1530 1530 1530 1530 1530 1530 1530 1530 1530 1529 1529 1529 1528 1528 1528 1528 1527 1527 1527 1526 1527 1526 1526 1526 1526 1525 1525 1525 1525
1525 1526 1526 1527 1527 1528 1528 1529 1529 1530 1530 1530 1530 1530 1531 1531 1531 1531 1531 1531 1530 1530 1530 1530 1530 1529 1529 1529 1528 1528 1528 1527 1527 1527 1527 1527 1526 1526 1526 1525 1525 1525 1525
1525 1526 1526 1527 1528 1528 1529 1529 1530 1530 1531 1531 1531 1531 1531 1531 1531 1531 1531 1531 1531 1531 1531 1530 1530 1530 1529 1529 1528 1528 1528 1528 1527 1527 1527 1527 1527 1526 1526 1526 1526 1525 1525
1525 1525 1526 1527 1528 1529 1529 1530 1530 1530 1531 1531 1531 1531 1532 1532 1532 1532 1532 1531 1531 1531 1531 1531 1530 1530 1529 1529 1528 1528 1528 1528 1527 1527 1527 1527 1527 1526 1526 1526 1526 1526 1526
1524 1525 1526 1527 1528 1528 1529 1530 1530 1531 1531 1531 1531 1531 1532 1532 1532 1532 1532 1531 1531 1531 1531 1531 1530 1530 1529 1529 1528 1528 1528 1527 1527 1527 1527 1527 1527 1527 1526 1526 1526 1526 1526
1524 1525 1526 1527 1527 1528 1529 1529 1530 1531 1531 1531 1531 1531 1532 1532 1532 1532 1532 1532 1531 1531 1531 1530 1530 1530 1529 1529 1528 1528 1527 1527 1527 1527 1526 1526 1526 1526 1526 1526 1526 1526 1526
1523 1524 1525 1526 1527 1527 1528 1529 1530 1530 1530 1530 1531 1531 1531 1531 1532 1532 1532 1532 1531 1531 1531 1530 1530 1529 1529 1529 1528 1528 1527 1527 1527 1527 1526 1526 1526 1526 1526 1526 1526 1526 1526
1521 1523 1524 1525 1526 1527 1528 1528 1529 1529 1529 1530 1530 1530 1531 1531 1531 1531 1531 1531 1531 1531 1530 1530 1530 1529 1529 1528 1528 1528 1528 1527 1527 1527 1526 1526 1525 1525 1525 1525 1525 1525 1525
1519 1521 1522 1524 1525 1526 1527 1527 1528 1529 1529 1529 1529 1530 1530 1530 1531 1531 1531 1531 1531 1531 1530 1530 1529 1529 1529 1528 1528 1528 1528 1529 1527 1527 1526 1526 1525 1525 1525 1525 1525 1525 1525
1517 1519 1520 1522 1523 1525 1526 1526 1527 1528 1528 1528 1528 1528 1529 1529 1530 1530 1530 1530 1530 1530 1530 1530 1529 1529 1528 1529 1529 1529 1528 1528 1527 1527 1526 1526 1525 1525 1524 1524 1524 1524 1525
1515 1517 1519 1520 1522 1523 1524 1525 1525 1526 1526 1527 1527 1528 1528 1528 1529 1529 1529 1529 1529 1530 1529 1529 1529 1529 1529 1528 1528 1529 1529 1528 1528 1526 1526 1526 1525 1525 1524 1524 1524 1524 1524
1513 1515 1517 1518 1520 1521 1522 1523 1524 1525 1525 1526 1527 1527 1527 1527 1527 1528 1528 1528 1528 1528 1529 1529 1528 1528 1528 1528 1528 1528 1528 1528 1527 1527 1526 1525 1525 1525 1524 1524 1524 1524 1524
1511 1513 1514 1516 1518 1519 1520 1522 1522 1523 1524 1524 1525 1525 1526 1526 1526 1526 1527 1527 1527 1527 1527 1527 1527 1527 1527 1527 1527 1527 1527 1527 1526 1526 1525 1525 1524 1524 1524 1523 1523 1523 1523